LFBDLXGB

Guest
Details From LFBD - Bordeaux Merignac
To LXGB - Gibraltar
Flight Number -
Tags decoded
Created
Modified
Stats Distance 590 nm / 1,092 km
Max Altitude 0 ft / 0 m
Waypoints 5
Social Downloads 1
Likes 0
Share VATSIM

Download

Looking for another format? Having issues loading an existing format? Contact us
Advertisement - Login to hide

Notes

Requested: LFBD ENSAC LEGA PIMOS LXGB

Route

LFBD ENSAC LEGA PIMOS LXGB

ID Type Via Altitude Latitude Longitude Leg Dist Tot Dist Heading (true) Name
O LFBD APT - 0 ft / 0 m 44.82876˚ -0.71476˚ - 0 nm - Bordeaux Merignac
ENSAC FIX - 0 ft / 0 m 44.20000˚ -0.69028˚ 37 nm 37 nm 178° / 178° -
LEGA APT - 0 ft / 0 m 37.13322˚ -3.63569˚ 445 nm 482 nm 199° / 197° Granada Armilla
PIMOS FIX - 0 ft / 0 m 36.15027˚ -4.89346˚ 84 nm 567 nm 226° / 225° -
O LXGB APT - 0 ft / 0 m 36.15121˚ -5.34966˚ 22 nm 589 nm 270° / 270° Gibraltar

Altitude Profile

Advertisement - Login to hide

Weather


0- 5 10 15 20 25 30 35+ Temperature / ° C

Clouds and Precipitation
Forecast for 2018-05-26 12:00 UTC. Updated 5 hours ago

Ground ~20,000 ft ~40,000 ft Winds

LFBD

Details ICAO LFBD (BOD)
Name Bordeaux Merignac
Region France
Timezone Europe/Paris (UTC+2.0)
Stats Elevation 166 ft / 51 m (AMSL)
Location 44.828762° -0.714755°
Runways 2
Magnetic Variation 0.010° W

METAR

LFBD 261530Z AUTO 11007KT CAVOK 20/16 Q1013 TEMPO 24015G30KT 2000 TSRA BKN010 BKN040CB

Decode

TAF

TAF TAF LFBD 261100Z 2612/2718 12005KT 9999 SCT020 OVC070 TEMPO 2612/2706 -SHRA FEW040CB BKN050TCU PROB40 TEMPO 2612/2621 24015G30KT 2000 TSRA BKN010 BKN040CB PROB30 TEMPO 2612/2614 24020G45KT 1200 TSRAGR BKN005 OVC030CB BECMG 2620/2622 VRB03KT PROB40 2703/2708 3000 BR BKN008 PROB30 TEMPO 2703/2707 1200 BCFG BECMG 2708/2710 30010KT BKN030 OVC080 TX23/2618Z TN14/2704Z

Decode

Departure Runways

ID Width Length Bearing (true) Bearing (mag) Surface Threshold Offset Overrun Length
05 148 ft / 45 m 10,164 ft / 3,098 m 45.48° 45.49° Asphalt 26 ft / 8 m 1,145 ft / 349 m
11 148 ft / 45 m 7,931 ft / 2,417 m 106.45° 106.46° Asphalt 26 ft / 8 m 1,198 ft / 365 m
23 148 ft / 45 m 10,164 ft / 3,098 m 225.50° 225.51° Asphalt 39 ft / 12 m 1,266 ft / 386 m
29 148 ft / 45 m 7,931 ft / 2,417 m 286.47° 286.48° Asphalt 33 ft / 10 m 1,201 ft / 366 m

LXGB

Details ICAO LXGB (GIB)
Name Gibraltar
Region Gibralter
Timezone Europe/Gibraltar (UTC+2.0)
Stats Elevation 15 ft / 5 m (AMSL)
Location 36.151209° -5.349664°
Runways 1
Magnetic Variation 1.072° W

METAR

LXGB 261450Z 19006KT 9999 FEW045 25/12 Q1012 NOSIG

Decode

TAF

Not found

Destination Runways

ID Width Length Bearing (true) Bearing (mag) Surface Threshold Offset Overrun Length
27 151 ft / 46 m 5,992 ft / 1,826 m 267.56° 268.63° Asphalt 367 ft / 112 m 89 ft / 27 m
9 151 ft / 46 m 5,992 ft / 1,826 m 87.54° 88.61° Asphalt 299 ft / 91 m 52 ft / 16 m

Popular Alternatives